Location: Unspecified
(42.9300°N, 71.1866°W)
Time: 20:27:14
(UTC-04:00)

Okean 3 - Visible Passes

Search period start: 30 April 2016 00:00
Search period end: 10 May 2016 00:00
Orbit: 578 x 604 km, 82.5° (Epoch: 30 April)

Date Brightness Start Highest point End Pass type
(mag) Time Alt. Az. Time Alt. Az. Time Alt. Az.
30 Apr 4.8 20:58:31 19° ESE 20:59:57 23° E 21:03:18 10° NE visible
30 Apr 5.2 22:35:01 20° WSW 22:37:03 30° WNW 22:40:52 10° NNW visible
01 May 4.2 21:06:16 21° SE 21:08:23 33° E 21:12:15 10° NNE visible
01 May 5.8 22:42:47 11° WSW 22:45:44 21° WNW 22:49:01 10° NNW visible
02 May 3.7 21:13:57 18° SSE 21:16:52 50° E 21:21:02 10° NNE visible
02 May 6.3 22:52:06 10° WSW 22:54:28 14° WNW 22:56:51 10° NW visible
03 May 3.4 21:21:32 13° S 21:25:23 78° E 21:29:41 10° N visible
04 May 3.8 21:29:41 10° SSW 21:33:57 68° W 21:38:13 10° N visible
05 May 4.6 21:38:26 10° SSW 21:42:33 44° WNW 21:46:39 10° N visible
06 May 5.4 21:47:25 10° SW 21:51:11 30° WNW 21:54:57 10° NNW visible
07 May 4.2 20:18:40 10° SSE 20:22:31 33° E 20:26:21 10° NNE visible
07 May 6.0 21:56:38 10° WSW 21:59:52 21° WNW 22:03:05 10° NNW visible
08 May 3.7 20:26:51 10° S 20:30:59 51° E 20:35:07 10° NNE visible
08 May 6.4 22:06:16 10° WSW 22:08:35 14° WNW 22:10:54 10° NW visible
09 May 3.4 20:35:15 10° S 20:39:30 79° E 20:43:46 10° N visible
